Location: Unspecified
(0.0000°N, 0.0000°E)
Time: 22:07:14
(UTC+00:00)

A-11 Canister half - Visible Passes

Search period start: 16 October 2017 00:00
Search period end: 26 October 2017 00:00
Orbit: 1515 x 1685 km, 47.2° (Epoch: 15 October)

Date Brightness Start Highest point End Pass type
(mag) Time Alt. Az. Time Alt. Az. Time Alt. Az.
16 Oct 9.1 18:29:27 10° NW 18:38:42 81° SW 18:48:12 10° SE visible
16 Oct 11.2 20:39:11 10° WSW 20:43:55 15° SW 20:48:46 10° SSW visible
17 Oct 10.3 05:15:44 10° SSW 05:25:22 47° SE 05:34:48 10° ENE visible
17 Oct 9.1 18:06:33 10° NW 18:15:49 88° SW 18:25:18 10° SE visible
17 Oct 11.1 20:15:35 10° W 20:20:56 16° SW 20:26:25 10° S visible
18 Oct 10.4 04:52:56 10° SSW 05:02:25 43° SE 05:11:43 10° ENE visible
18 Oct 11.1 19:52:04 10° W 19:57:57 18° SW 20:03:59 10° S visible
19 Oct 10.4 04:30:10 10° SSW 04:39:27 40° SE 04:48:35 10° ENE visible
19 Oct 11.1 19:28:40 10° W 19:35:00 20° SW 19:41:29 10° S visible
20 Oct 10.5 04:07:25 10° SSW 04:16:29 36° SE 04:25:26 10° ENE visible
20 Oct 11.0 19:05:19 10° W 19:12:02 22° SW 19:18:55 10° S visible
21 Oct 10.6 03:44:41 10° SSW 03:53:31 33° SE 04:02:14 10° ENE visible
21 Oct 11.0 18:42:01 10° W 18:49:05 24° SW 18:56:20 10° S visible
22 Oct 10.6 03:21:59 10° S 03:30:33 30° SE 03:39:01 10° ENE visible
22 Oct 11.0 18:18:46 10° WNW 18:26:09 27° SW 18:33:42 10° S visible
23 Oct 10.7 02:59:19 10° S 03:07:34 28° SE 03:15:45 10° ENE visible
23 Oct 9.2 05:02:30 10° SW 05:12:34 66° NW 05:22:30 10° NNE visible
23 Oct 10.9 17:55:33 10° WNW 18:03:13 29° SW 18:11:03 10° S visible
24 Oct 10.7 02:36:41 10° S 02:44:35 25° SE 02:52:26 10° E visible
24 Oct 9.1 04:39:30 10° SW 04:49:38 72° NW 04:59:39 10° NNE visible
25 Oct 10.8 02:14:05 10° S 02:21:36 23° SE 02:29:05 10° E visible
25 Oct 9.1 04:16:31 10° SW 04:26:42 77° NW 04:36:47 10° NE visible
